AC 10 PROBE (GANGESTAD) (45174 NORAD) Tracking and Keplerian Element Data

This shows tracking and keplerian element data for the satellite.

Feedback or suggestion? Click here.




ElementValue
Catalog45174
NameAC 10 PROBE (GANGESTAD)
Epoch Orbit2254
Epoch Day189.81204002
Epoch Year2020
RAAN283.4814
Inclination51.6312
Eccentricity0.0012794
Argument of Perigee346.7802
Mean Anonmoly13.2854
Mean Motion15.59261357
Decay Rate0.00196792
L11 45174U 19022L 20189.81204002 .00196792 00000-0 23946-2 0 9992
L22 45174 51.6312 283.4814 0012794 346.7802 13.2854 15.59261357 22544

Live tracking and technical data element details for AC 10 PROBE (GANGESTAD) (NORAD 45174). AC 10 PROBE (GANGESTAD) can be tracked NOW for your location showing map with azimuth and elevation plus other details from your city location.

Track the satellite on the map from your city or location and see movement details for azimuth, elevation, latitude, longitude, range, height, and movement on the map or in text.







IsCatalogInMostPopularTable: catalog: 45174, numindb: 26
Update: records affected: 1



GetName: 45174 AC 10 PROBE (GANGESTAD)

Hit Count: updated at: Fri, 10 Jul 2020 03:29:33 GMT